• In Uzbekistan
  • List of Countries
  • For 7 days
  • Water Temperature
  • Satellite Maps
  • Weather Map
  • Weather Widgets
  • user-avatar
    Login

    Hourly Weather Biatris

    Today, 20 July, Friday

    Time Temperature Precipitation Wind Pressure Humidity
    00:00 +9°C° 0 mm 3 mps 657 mmHg 77%
    01:00 +9°C° 0 mm 3 mps 657 mmHg 79%
    02:00 +9°C° 0 mm 3 mps 657 mmHg 81%
    03:00 +8°C° 0 mm 3 mps 657 mmHg 83%
    04:00 +8°C° 0 mm 3 mps 657 mmHg 85%
    05:00 +7°C° 0 mm 3 mps 657 mmHg 87%
    06:00 +8°C° 0 mm 3 mps 657 mmHg 81%
    07:00 +9°C° 0 mm 3 mps 657 mmHg 76%
    08:00 +11°C° 0 mm 3 mps 658 mmHg 68%
    09:00 +13°C° 0 mm 3 mps 658 mmHg 57%
    10:00 +17°C° 0 mm 3 mps 659 mmHg 46%
    11:00 +19°C° 0 mm 3 mps 659 mmHg 36%
    12:00 +20°C° 0 mm 3 mps 659 mmHg 32%
    13:00 +21°C° 0 mm 3 mps 658 mmHg 29%
    14:00 +21°C° 0 mm 3 mps 658 mmHg 29%
    15:00 +21°C° 0 mm 3 mps 658 mmHg 31%
    16:00 +20°C° 0 mm 3 mps 658 mmHg 33%
    17:00 +19°C° 0 mm 3 mps 657 mmHg 36%
    18:00 +17°C° 0 mm 3 mps 657 mmHg 45%
    19:00 +14°C° 0 mm 3 mps 657 mmHg 54%
    20:00 +12°C° 0 mm 3 mps 657 mmHg 62%
    21:00 +12°C° 0 mm 3 mps 657 mmHg 68%
    22:00 +11°C° 0 mm 3 mps 657 mmHg 73%
    23:00 +10°C° 0 mm 3 mps 657 mmHg 78%

    Tomorrow, 21 July, Saturday

    Time Temperature Precipitation Wind Pressure Humidity
    00:00 +10°C° 0 mm 3 mps 657 mmHg 81%
    01:00 +10°C° 0 mm 3 mps 657 mmHg 84%
    02:00 +9°C° 0 mm 3 mps 657 mmHg 88%
    03:00 +9°C° 0 mm 3 mps 657 mmHg 89%
    04:00 +9°C° 0 mm 2 mps 657 mmHg 91%
    05:00 +8°C° 0 mm 2 mps 656 mmHg 93%
    06:00 +9°C° 0 mm 3 mps 657 mmHg 87%
    07:00 +10°C° 0 mm 3 mps 657 mmHg 82%
    08:00 +11°C° 0 mm 4 mps 658 mmHg 76%
    09:00 +14°C° 0 mm 3 mps 659 mmHg 65%
    10:00 +17°C° 0 mm 3 mps 659 mmHg 53%
    11:00 +20°C° 0 mm 3 mps 660 mmHg 42%
    12:00 +21°C° 0 mm 3 mps 660 mmHg 38%
    13:00 +22°C° 0 mm 3 mps 659 mmHg 35%
    14:00 +24°C° 0 mm 3 mps 659 mmHg 31%
    15:00 +22°C° 0 mm 3 mps 659 mmHg 34%
    16:00 +21°C° 0 mm 3 mps 658 mmHg 37%
    17:00 +20°C° 0 mm 3 mps 658 mmHg 40%
    18:00 +18°C° 0 mm 3 mps 658 mmHg 48%
    19:00 +16°C° 0 mm 3 mps 658 mmHg 56%
    20:00 +13°C° 0 mm 3 mps 658 mmHg 64%
    21:00 +13°C° 0 mm 3 mps 658 mmHg 67%
    22:00 +12°C° 0 mm 3 mps 659 mmHg 70%
    23:00 +11°C° 0 mm 3 mps 659 mmHg 73%

    Day after tomorrow, 22 July, Sunday

    Time Temperature Precipitation Wind Pressure Humidity
    00:00 +11°C° 0 mm 3 mps 658 mmHg 73%
    01:00 +10°C° 0 mm 3 mps 658 mmHg 73%
    02:00 +10°C° 0 mm 2 mps 658 mmHg 73%
    03:00 +9°C° 0 mm 2 mps 658 mmHg 73%
    04:00 +9°C° 0 mm 2 mps 658 mmHg 74%
    05:00 +9°C° 0 mm 2 mps 658 mmHg 75%
    06:00 +10°C° 0 mm 3 mps 658 mmHg 70%
    07:00 +11°C° 0 mm 4 mps 659 mmHg 66%
    08:00 +13°C° 0 mm 4 mps 660 mmHg 62%
    09:00 +15°C° 0 mm 4 mps 660 mmHg 55%
    10:00 +18°C° 0 mm 4 mps 661 mmHg 48%
    11:00 +21°C° 0 mm 4 mps 661 mmHg 41%
    12:00 +21°C° 0 mm 4 mps 661 mmHg 39%
    13:00 +22°C° 0 mm 4 mps 660 mmHg 36%
    14:00 +23°C° 0 mm 4 mps 660 mmHg 34%
    15:00 +22°C° 0 mm 4 mps 660 mmHg 37%
    16:00 +21°C° 0 mm 4 mps 659 mmHg 40%
    17:00 +20°C° 0 mm 4 mps 659 mmHg 43%
    18:00 +19°C° 0 mm 4 mps 659 mmHg 50%
    19:00 +18°C° 0 mm 4 mps 659 mmHg 56%
    20:00 +15°C° 0 mm 4 mps 659 mmHg 63%
    21:00 +14°C° 0 mm 4 mps 659 mmHg 67%
    22:00 +13°C° 0 mm 3 mps 659 mmHg 72%
    23:00 +13°C° 0 mm 3 mps 659 mmHg 76%

    23 July, Monday

    Time Temperature Precipitation Wind Pressure Humidity
    00:00 +12°C° 0 mm 3 mps 659 mmHg 80%
    01:00 +12°C° 0 mm 3 mps 659 mmHg 83%
    02:00 +11°C° 0 mm 3 mps 658 mmHg 87%
    03:00 +11°C° 0 mm 3 mps 658 mmHg 88%
    04:00 +10°C° 0 mm 3 mps 658 mmHg 90%
    05:00 +10°C° 0 mm 3 mps 658 mmHg 91%
    06:00 +11°C° 0 mm 4 mps 658 mmHg 87%
    07:00 +12°C° 0 mm 4 mps 659 mmHg 82%
    08:00 +13°C° 0 mm 5 mps 660 mmHg 77%
    09:00 +15°C° 0 mm 5 mps 660 mmHg 68%
    10:00 +16°C° 0 mm 5 mps 661 mmHg 59%
    11:00 +19°C° 0 mm 5 mps 661 mmHg 50%
    12:00 +20°C° 0 mm 4 mps 661 mmHg 46%
    13:00 +21°C° 0 mm 4 mps 660 mmHg 43%
    14:00 +22°C° 0 mm 4 mps 660 mmHg 39%
    15:00 +21°C° 0 mm 4 mps 659 mmHg 42%
    16:00 +20°C° 0 mm 4 mps 659 mmHg 44%
    17:00 +20°C° 0 mm 4 mps 659 mmHg 47%
    18:00 +18°C° 0 mm 4 mps 659 mmHg 53%
    19:00 +15°C° 0 mm 4 mps 659 mmHg 59%
    20:00 +14°C° 0 mm 3 mps 659 mmHg 65%
    21:00 +13°C° 0 mm 3 mps 659 mmHg 67%
    22:00 +12°C° 0 mm 3 mps 659 mmHg 69%
    23:00 +12°C° 0 mm 2 mps 659 mmHg 71%

    24 July, Tuesday

    Time Temperature Precipitation Wind Pressure Humidity
    00:00 +12°C° 0 mm 2 mps 658 mmHg 75%
    01:00 +10°C° 0 mm 2 mps 657 mmHg 80%
    02:00 +9°C° 0 mm 2 mps 657 mmHg 84%
    03:00 +9°C° 0 mm 2 mps 657 mmHg 86%
    04:00 +9°C° 0 mm 2 mps 657 mmHg 88%
    05:00 +8°C° 0 mm 2 mps 657 mmHg 90%
    06:00 +10°C° 0 mm 2 mps 658 mmHg 85%
    07:00 +11°C° 0 mm 3 mps 658 mmHg 81%
    08:00 +12°C° 0 mm 3 mps 659 mmHg 76%
    09:00 +16°C° 0 mm 3 mps 660 mmHg 66%
    10:00 +18°C° 0 mm 3 mps 660 mmHg 56%
    11:00 +20°C° 0 mm 3 mps 660 mmHg 46%
    12:00 +21°C° 0 mm 3 mps 660 mmHg 41%
    13:00 +24°C° 0 mm 3 mps 659 mmHg 35%
    14:00 +25°C° 0 mm 3 mps 659 mmHg 30%
    15:00 +24°C° 0 mm 3 mps 658 mmHg 31%
    16:00 +22°C° 0 mm 3 mps 658 mmHg 33%
    17:00 +22°C° 0 mm 3 mps 658 mmHg 34%
    18:00 +19°C° 0 mm 3 mps 658 mmHg 42%
    19:00 +17°C° 0 mm 2 mps 657 mmHg 49%
    20:00 +15°C° 0 mm 2 mps 657 mmHg 57%
    21:00 +14°C° 0 mm 2 mps 657 mmHg 60%
    22:00 +14°C° 0 mm 2 mps 657 mmHg 64%
    23:00 +13°C° 0 mm 2 mps 657 mmHg 68%

    25 July, Wednesday

    Time Temperature Precipitation Wind Pressure Humidity
    00:00 +12°C° 0 mm 2 mps 656 mmHg 70%
    01:00 +12°C° 0 mm 2 mps 656 mmHg 71%
    02:00 +10°C° 0 mm 2 mps 656 mmHg 73%
    03:00 +9°C° 0 mm 2 mps 656 mmHg 74%
    04:00 +9°C° 0 mm 2 mps 655 mmHg 75%
    05:00 +8°C° 0 mm 2 mps 655 mmHg 75%
    06:00 +10°C° 0 mm 2 mps 656 mmHg 69%
    07:00 +12°C° 0 mm 2 mps 657 mmHg 62%
    08:00 +14°C° 0 mm 2 mps 658 mmHg 56%
    09:00 +17°C° 0 mm 2 mps 658 mmHg 45%
    10:00 +20°C° 0 mm 2 mps 659 mmHg 33%
    11:00 +24°C° 0 mm 1 mps 660 mmHg 22%
    12:00 +25°C° 0 mm 2 mps 659 mmHg 19%
    13:00 +26°C° 0 mm 2 mps 658 mmHg 16%
    14:00 +27°C° 0 mm 2 mps 658 mmHg 13%
    15:00 +26°C° 0 mm 2 mps 657 mmHg 14%
    16:00 +25°C° 0 mm 2 mps 657 mmHg 15%
    17:00 +24°C° 0 mm 2 mps 656 mmHg 16%
    18:00 +20°C° 0 mm 2 mps 656 mmHg 22%
    19:00 +18°C° 0 mm 2 mps 656 mmHg 27%
    20:00 +15°C° 0 mm 2 mps 656 mmHg 32%
    21:00 +15°C° 0 mm 2 mps 656 mmHg 35%
    22:00 +14°C° 0 mm 2 mps 656 mmHg 38%
    23:00 +13°C° 0 mm 2 mps 656 mmHg 41%
    Show more